Location: Fontevrault
(47.1823°N, 0.0493°E)
Time: 13:58:32
(UTC+00:00)

USA 215 - Visible Passes

Search period start: 22 October 2021 00:00
Search period end: 01 November 2021 00:00
Orbit: 1093 x 1114 km, 123.0° (Epoch: 17 October)

Date Brightness Start Highest point End Pass type
(mag) Time Alt. Az. Time Alt. Az. Time Alt. Az.
22 Oct 4.0 18:50:01 17° NE 18:54:42 45° NNW 19:00:51 10° W visible
22 Oct 4.2 20:37:22 38° N 20:37:22 38° N 20:42:49 10° WNW visible
22 Oct 5.6 22:24:43 14° NW 22:24:43 14° NW 22:25:36 10° NW visible
23 Oct 3.7 18:05:48 10° NE 18:12:13 61° NNW 18:18:39 10° WSW visible
23 Oct 4.2 19:52:55 33° NNE 19:54:36 39° N 20:00:32 10° WNW visible
23 Oct 5.1 21:40:17 24° NW 21:40:17 24° NW 21:42:53 10° NW visible
24 Oct 3.4 17:22:59 10° NE 17:29:34 89° NNW 17:36:09 10° SW visible
24 Oct 4.0 19:08:29 23° NE 19:12:15 45° NNW 19:18:24 10° W visible
24 Oct 4.5 20:55:50 34° NNW 20:55:50 34° NNW 21:00:22 10° WNW visible
25 Oct 3.6 18:24:04 14° NE 18:29:46 60° NNW 18:36:12 10° WSW visible
25 Oct 4.1 20:11:25 37° N 20:12:09 38° N 20:18:05 10° WNW visible
25 Oct 5.4 21:58:46 18° NW 21:58:46 18° NW 22:00:26 10° NW visible
26 Oct 3.3 17:40:33 10° NE 17:47:07 89° NNW 17:53:42 10° WSW visible
26 Oct 4.0 19:27:00 30° NE 19:29:48 45° NNW 19:35:56 10° W visible
26 Oct 4.8 21:14:22 29° NW 21:14:22 29° NW 21:17:55 10° WNW visible
27 Oct 3.6 18:42:36 19° NE 18:47:19 60° NNW 18:53:44 10° WSW visible
27 Oct 4.2 20:29:57 38° N 20:29:57 38° N 20:35:38 10° WNW visible
27 Oct 5.7 22:17:18 13° NW 22:17:18 13° NW 22:17:59 10° NW visible
28 Oct 3.3 17:58:12 11° NE 18:04:40 89° NW 18:11:15 10° WSW visible
28 Oct 4.0 19:45:33 37° NNE 19:47:21 45° NNW 19:53:29 10° W visible
28 Oct 5.1 21:32:55 23° NW 21:32:55 23° NW 21:35:28 10° WNW visible
29 Oct 3.5 17:15:23 10° ENE 17:21:48 56° SE 17:28:14 10° SW visible
29 Oct 3.6 19:01:11 27° NE 19:04:52 60° NNW 19:11:17 10° WSW visible
29 Oct 4.5 20:48:32 35° NNW 20:48:32 35° NNW 20:53:10 10° WNW visible
30 Oct 3.2 18:16:49 16° NE 18:22:13 88° NNW 18:28:48 10° WSW visible
30 Oct 3.9 20:04:10 43° N 20:04:54 45° NNW 20:11:02 10° W visible
30 Oct 5.5 21:51:32 17° NW 21:51:32 17° NW 21:53:01 10° WNW visible
31 Oct 3.5 17:32:57 10° ENE 17:39:22 56° SE 17:45:47 10° SW visible
31 Oct 3.6 19:19:49 36° NE 19:22:25 60° NNW 19:28:50 10° WSW visible
31 Oct 4.8 21:07:11 29° NW 21:07:11 29° NW 21:10:43 10° WNW visible
